User: anonymous   Login
Location: Unspecified
(0.0000°N, 0.0000°E)
Time: 12:37:53
(UTC+00:00)
Language:

GALILEO 10 (206) - Orbit

View from above orbital plane
View from above orbital plane
View from above satellite
View from above satellite

Ground track
Ground track

The orbit data is extracted from the following two-line orbital elements,

1 40890U 15045B   17086.70182016 -.00000010 +00000-0 +00000-0 0  9995
2 40890 057.0701 314.3433 0002618 022.3747 337.6980 01.70474554009615
Epoch (UTC): 27 March 2017 16:50:37
Eccentricity: 0.0002618
inclination: 57.0701°
perigee height: 23214 km
apogee height: 23229 km
right ascension of ascending node: 314.3433°
argument of perigee: 22.3747°
revolutions per day: 1.70474554
mean anomaly at epoch: 337.6980°
orbit number at epoch: 961

The dashed part of the orbit path shows where the satellite is in the earth's shadow,  

DLR